C/1997 J2 (Meunier-Dupouy) 

Epoch 1998 Mar. 8.0 TT = JDT 2450880.5  

T 1998 Mar. 10.44222 TT                                 Nakano

q   3.0511391            (2000.0)            P               Q

z  -0.0002024      Peri.  122.67408     +0.47167188     +0.71414011

 +/-0.0000006      Node   148.84465     -0.57631599     -0.19428352

e   1.0006175      Incl.   91.27334     +0.66737210     -0.67250116

From 1360 observations 1997 May 5-1999 Oct. 9, mean residual 0".69.

Residuals in seconds of arc 

1997/                     970908 367  0.1+  0.2+    980703 352  1.4+  1.2-  

970505 675  0.3+  1.8+    970908 118  0.6+  0.0     980703 352  0.8+  0.7+  

970507 617  0.2-  0.0     970908 118  0.8+  0.6+    980703 352  0.7+  0.8-  

970507 617  0.3-  0.1+    970908 628  0.3-  0.5-    980704 355  1.1+  0.4+  

970508 958  0.6-  0.4-    970908 628  0.0   0.3-    980704 355  0.7+  0.0   

970508 958  0.6-  0.6-    970908 628  0.2-  0.8-    980704 355  0.8+  0.4+  

970508 958  0.5-  0.5+    970910 605 (1.2-  2.5-)   980705 372  0.3+  0.2+  

970508 958  0.7+  1.5-    970910 605  0.4-  1.0-    980705 402  0.6+  0.0   

970508 618 (1.6-  3.5-)   970910 628  0.7-  1.2-    980705 402  0.6+  0.0   

970508 618  1.5+  1.4-    970910 628  0.9-  0.9-    980705 402  0.6+  0.1+  

970508 618  1.6+  1.2-    970910 628  0.2-  1.1-    980705 958  0.1+  0.2-  

970508 958  0.5-  1.6-    970911 897  0.2+  0.4-    980706 958  0.9+  1.2-  

970508 618  1.7+  1.0-    970911 897  0.7-  0.1+    980706 958  0.3+  0.3-  

970508 618  1.8+  1.4-    970912 118  0.6-  0.3-    980708 605  1.2+  1.1-  

970509 367  0.7+  0.2-    970912 118  1.1-  0.3-    980710 750  1.1+  0.5+  

970509 367  0.5+  0.2+    970912 628  0.6-  0.4-    980710 750  1.0+  0.1+  

970509 367  0.8+  0.0     970912 628  1.0-  0.1-    980712 958  0.8+  0.0   

970509 355  0.5+  0.3-    970912 628  0.8-  0.1+    980712 958  0.4+  0.1+  

970509 355  0.2+  0.2-    970912 628  0.6-  0.2-    980713 958  0.0   0.0   

970509 355  0.4+  0.3-    970913 628  0.6-  0.1-    980713 958  0.1+  0.4-  

970509 367  0.2+  0.3+    970913 628  0.4-  0.2-    980714 958  0.7+  0.0   

970509 900  0.2+  0.3+    970913 628  0.7-  0.1+    980714 958  0.5+  0.1+  

970509 900  0.3+  0.2+    970914 628  0.8-  0.2-    980714 958  0.7+  0.3+  

970509 897  0.2+  0.4+    970914 628  0.7-  0.5+    980718 750  0.2+  0.4+  

970509 897  0.3+  0.1+    970914 628  0.6-  0.0     980718 750  0.1+  0.4+  

970509 897  0.0   0.0     970917 118  0.5-  0.4+    980718 351  0.2-  0.5+  

970509 402  0.4+  0.2+    970917 118  0.8-  0.4+    980718 351  0.1-  0.1-  

970509 402  0.4+  0.2+    970919 758  1.4-  0.2-    980718 351  1.0+  0.3+  

970509 402  0.5+  0.3+    970919 360  0.4-  0.3+    980719 958  0.3+  0.4+  

970509 867  0.7+  0.5-    970919 360  0.2-  0.2+    980719 958  0.2+  0.1-  

970509 897  0.3+  0.1-    970919 897  0.9-  0.1-    980719 605  0.5+  0.8-  

970509 867  0.7+  0.6-    970920 758  1.0-  1.1-    980720 605  0.6+  0.8-  

970509 867  0.7+  0.2-    970920 758  0.6-  0.1+    980720 750  0.1+  0.6+  

970509 900  0.1-  0.0     970920 504  1.5-  0.2+    980720 750  0.1-  0.3+  

970509 353  0.7+  0.6+    970920 504  1.5-  0.1-    980722 118  0.2+  0.4+  

970509 353  0.9+  0.7-    970920 504  1.4-  0.1+    980722 118  0.1+  0.5+  

970509 864  0.2-  0.5+    970920 504  1.4-  0.0     980722 627  0.1-  0.5-  

970509 402  0.5+  0.1+    970920 504  1.3-  0.1-    980722 627  0.4-  0.7-  

970509 402  0.2+  0.4+    970920 504  1.5-  0.2+    980722 627  0.1+  0.1-  

970509 402  0.4+  0.0     970920 504  1.4-  0.6+    980722 605  0.4+  1.3-  

970509 864  0.3-  0.1+    970920 504  1.3-  0.8+    980722 605  0.0   1.2-  

970509 046  0.1+  0.2+    970920 118  1.7-  0.5-    980723 605  0.1-  1.0-  

970509 046  0.4+  0.4+    970920 118  1.4-  0.2-    980723 138  0.5-  0.5-  

970509 046  0.6+  0.3+    970921 758 (2.3-  0.7-)   980723 138  1.2-  0.3-  

970509 046  0.3-  0.5+    970921 758  1.2-  1.2-    980723 138  0.4-  0.2-  

970509 046  0.2+  0.4+    970922 758  0.9-  0.6-    980723 138  0.6-  0.3-  

970509 046  0.0   0.2+    970922 758  1.4-  1.2-    980728 355  1.0+  0.2-  

970509 959  0.1+  0.4-    970923 504  0.4-  0.3-    980728 355  1.0+  0.2-  

970509 959  0.2+  0.6-    970923 504  0.1-  0.1+    980728 355  1.0+  0.1-  

970509 959  0.0   0.2-    970923 504  0.3-  0.5-    980730 958  0.9+  0.2-  

970509 557  0.6+  0.2+    970923 504  0.5-  0.2-    980730 958  0.8+  0.1-  

970509 557  0.8+  0.2+    970923 504  0.8-  0.3-    980730 152 (3.7-  6.7-) 

970509 557  0.4+  0.3+    970923 504  0.4-  0.1-    980730 152  0.0   0.4-  

970509 118  0.2+  0.0     970923 504  0.1-  0.2-    980730 152 (1.4-  8.2-) 

970509 118  0.2+  0.2+    970923 504  0.2-  0.0     980802 152  0.1+  0.4-  

970509 118  0.3+  0.5+    970923 504  0.6-  0.0     980802 152  1.0+  1.8-  

970509 965  1.0+  0.7+    970924 118  0.1-  0.1+    980802 958  0.1+  0.4-  

970509 965  0.2+  1.0+    970924 118  0.5-  0.2-    980802 958  0.7+  0.6-  

970509 965  0.6+  1.0+    970925 605  0.7-  1.5-    980802 118  0.2+  0.1-  

970509 965  0.7+  0.8+    970925 605  1.3-  0.7-    980802 118  0.6+  0.5-  

970509 965  0.8+  0.8+    970925 605  0.6-  1.0-    980802 958  0.6+  1.2-  

970509 965  0.5+  0.6+    970925 504  0.5-  0.4-    980802 958  0.3+  0.2-  

970509 620  1.0+  0.4-    970925 504  0.5-  0.3-    980803 958  0.1-  0.1+  

970510 620  0.8+  0.3-    970925 504  0.1-  0.2-    980803 958  0.1+  0.3-  

970510 620  0.4+  0.0     970925 504  0.6-  0.1+    980803 958  0.2-  0.1-  

970510 900  0.1+  0.6-    970925 504  0.3-  0.1+    980804 372  1.2-  1.0+  

970510 900  0.1-  0.1-    970925 504  0.2-  0.1+    980804 360  0.0   0.6+  

970510 402  0.1+  0.3+    970925 504  0.1-  0.2-    980804 360  0.2-  0.6+  

970510 402  0.2+  0.3+    970926 118  0.6-  0.1-    980805 372  0.7-  1.6+  

970510 402  0.2+  0.2+    970926 118  0.3-  0.0     980805 152 (1.2+  4.4-) 

970510 046  0.4+  0.1+    970927 504  0.7-  0.3+    980805 152 (5.0+  1.0+) 

970510 046  0.2+  0.5+    970927 504  0.6-  0.2+    980805 046  0.2-  0.5+  

970510 046  0.2+  0.5+    970927 504  0.9-  0.5+    980805 046  0.3-  0.5+  

970510 046  0.2+  0.4+    970927 504  0.7-  0.4+    980805 046  0.4-  0.5+  

970510 046  0.3+  0.4+    970927 504  0.8-  0.2+    980807 152 (2.0+  0.8+) 

970510 963  0.1+  0.1-    970927 504  0.7-  0.4+    980807 152  0.5+  0.9-  

970510 118  0.7-  0.2+    970927 504  0.5-  0.1+    980809 118  0.1+  0.3-  

970510 118  0.1+  0.0     970928 360  0.9-  0.1+    980809 118  0.2+  0.4-  

970510 118  0.2+  0.2-    970928 900  0.2-  0.3-    980810 143  0.3+  0.3+  

970511 353  0.1-  0.2+    970928 360  0.9-  0.1-    980810 143  0.4+  0.3+  

970511 353  0.1-  0.2+    970928 900  1.2-  0.6-    980810 504  0.3+  0.2-  

970511 402  0.2-  0.6+    970928 046  0.7-  0.1-    980810 504  0.2-  0.0   

970511 402  0.4-  0.5+    970928 046  0.6-  0.1-    980810 143  0.6+  0.6+  

970511 402  0.5-  0.0     970928 046  0.7-  0.2-    980810 504  0.2+  0.4-  

970511 372  0.7+  0.4+    970928 046  0.5-  0.1-    980810 504  0.0   0.0   

970511 963  0.4-  0.5+    970929 758  1.1-  0.4-    980810 504  0.5+  0.6-  

970511 617  0.1+  0.3+    970929 758  1.4-  0.2-    980810 504  0.2+  0.1+  

970511 617  0.1+  0.0     970929 402  1.1-  0.0     980810 504  0.5+  0.5-  

970511 617  0.1+  0.1+    970929 402  1.2-  0.2-    980810 046  0.2+  0.3+  

970511 118  0.4+  0.1+    970929 402  1.1-  0.2-    980810 046  0.2+  0.1+  

970511 118  0.7+  0.2-    970929 118  1.5-  1.2-    980810 046  0.2+  0.2+  

970511 118  0.7+  0.0     970929 118  1.2-  1.2-    980811 372  0.2+  1.2+  

970512 372  0.8-  0.1-    970930 758  1.7-  1.3-    980811 372  0.4+  0.8+  

970512 402  0.4+  0.6+    970930 758  1.6-  0.7-    980811 402  0.1+  0.4+  

970512 402  0.0   0.0     970930 758  1.5-  0.6-    980811 402  0.2+  0.4+  

970512 402  0.8-  1.0+    970930 897  1.3-  0.1+    980811 402  0.1+  0.4+  

970512 960  0.0   0.2+    970930 897  0.4-  0.2-    980811 351  0.9+  0.8+  

970513 605  0.4-  0.3-    971001 758  1.1-  0.8-    980811 351  0.8+  0.0   

970513 605  0.1+  0.4+    971001 758  1.0-  0.8-    980811 351  1.5+  0.6+  

970514 709  0.5+  0.2+    971001 504  0.1+  0.0     980811 351  1.5+  1.0+  

970514 709  0.3+  0.3+    971001 504  0.2+  0.2+    980811 152  0.0   0.2+  

970514 709  0.0   0.1+    971001 504  0.3+  0.0     980811 152 (0.9+  3.7-) 

970514 709  0.6+  0.2+    971001 504  0.3+  0.2+    980812 152  0.5+  0.3+  

970514 709  0.5+  0.2+    971001 504  0.1+  0.1+    980812 152 (2.1+  3.9-) 

970514 587  0.4+  0.5+    971003 995  0.1+  0.9-    980812 834  0.1+  1.2+  

970514 587  0.4+  0.5+    971005 504  0.2-  0.1+    980813 152  0.0   0.1-  

970514 557  0.6+  0.7+    971005 504  0.4-  0.2+    980813 152 (0.7+  2.4-) 

970515 046  0.1-  1.0+    971005 504  0.5-  0.3+    980813 958  0.3+  0.3+  

970515 046  0.3-  0.7+    971005 504  0.4-  0.1+    980813 958  0.6+  0.3+  

970515 046  0.3+  0.7+    971005 504  0.5-  0.1+    980813 958  0.4+  0.0   

970515 046  0.6+  1.3+    971005 504  0.4-  0.1+    980814 958  0.0   0.7-  

970516 118  0.8+  0.6+    971005 504  0.2-  0.3+    980814 958  0.8+  0.3+  

970516 118  0.7+  0.7+    971005 504  0.4-  0.2+    980814 504  0.6+  0.5-  

970516 402  0.4+  0.7+    971005 504  0.3-  0.1+    980814 504  0.1+  0.7-  

970516 402  0.1+  0.2+    971006 118  0.7-  0.3-    980814 504  0.7+  0.2+  

970516 402  0.1-  0.1+    971006 118  0.7-  0.7-    980814 504  0.2+  0.1+  

970516 046  0.1+  0.7+    971010 995  0.0   0.3-    980814 504  0.6+  0.2-  

970516 046  0.3+  0.7+    971012 900  0.8-  0.3-    980814 504  0.3+  0.5-  

970516 046  0.1+  0.8+    971012 900  0.2-  0.6-    980814 628  0.8+  1.7-  

970517 900  0.1+  1.5+    971012 897  1.2-  0.5-    980815 628  0.7+  0.8-  

970517 900  0.3+  0.8+    971012 897  0.8-  0.6-    980815 628  0.3+  1.7-  

